Time,TemperatureF,DewpointF,PressureIn,WindDirection,WindDirectionDegrees,WindSpeedMPH,WindSpeedGustMPH,Humidity,HourlyPrecipIn,Conditions,Clouds,dailyrainin,SoftwareType,DateUTC
2013-02-01 00:00:00,31.2,11.3,29.50,WNW,299,2.0,2.0,43,0.00,,SCT040,0.00,VWS V14.01,2013-02-01 05:00:00,
2013-02-01 00:01:00,31.2,11.3,29.50,WNW,299,2.0,2.0,43,0.00,,SCT040,0.00,VWS V14.01,2013-02-01 05:01:00,
2013-02-01 00:02:00,31.2,11.3,29.50,WNW,299,2.0,2.0,43,0.00,,SCT060,0.00,VWS V14.01,2013-02-01 05:02:00,
2013-02-01 00:03:00,31.2,11.3,29.50,WNW,299,2.0,2.0,43,0.00,,SCT040,0.00,VWS V14.01,2013-02-01 05:03:00,
2013-02-01 00:04:00,31.2,11.3,29.50,WNW,299,2.0,2.0,43,0.00,,SCT060,0.00,VWS V14.01,2013-02-01 05:04:00,
2013-02-01 00:05:00,31.2,11.3,29.50,WNW,299,2.0,2.0,43,0.00,,SCT060,0.00,VWS V14.01,2013-02-01 05:05:00,
2013-02-01 00:06:00,31.0,11.1,29.50,West,260,7.0,7.0,43,0.00,,SCT060,0.00,VWS V14.01,2013-02-01 05:06:00,
2013-02-01 00:07:00,31.0,11.1,29.50,WSW,240,4.0,7.0,43,0.00,,SCT060,0.00,VWS V14.01,2013-02-01 05:07:00,
2013-02-01 00:08:00,31.0,11.1,29.50,SSE,167,2.0,3.0,43,0.00,,SCT040,0.00,VWS V14.01,2013-02-01 05:08:00,
2013-02-01 00:09:00,31.0,11.1,29.50,West,280,3.0,5.0,43,0.00,,SCT060,0.00,VWS V14.01,2013-02-01 05:09:00,
2013-02-01 00:10:00,31.0,11.1,29.50,WSW,240,11.0,11.0,43,0.00,,SCT060,0.00,VWS V14.01,2013-02-01 05:10:00,
2013-02-01 00:11:00,31.0,11.1,29.50,NNE,12,3.0,11.0,43,0.00,,SCT060,0.00,VWS V14.01,2013-02-01 05:11:00,
2013-02-01 00:12:00,31.0,11.1,29.50,West,264,10.0,14.0,43,0.00,,SCT060,0.00,VWS V14.01,2013-02-01 05:12:00,
2013-02-01 00:13:00,31.0,10.6,29.50,West,270,5.0,13.0,42,0.00,,SCT060,0.00,VWS V14.01,2013-02-01 05:13:00,
2013-02-01 00:14:00,31.0,11.1,29.50,SE,124,2.0,6.0,43,0.00,,SCT060,0.00,VWS V14.01,2013-02-01 05:14:00,
2013-02-01 00:15:00,31.0,11.1,29.50,WSW,249,4.0,7.0,43,0.00,,SCT060,0.00,VWS V14.01,2013-02-01 05:15:00,
2013-02-01 00:16:00,31.0,11.1,29.50,West,262,5.0,11.0,43,0.00,,SCT060,0.00,VWS V14.01,2013-02-01 05:16:00,
2013-02-01 00:17:00,31.0,11.1,29.50,WSW,245,2.0,5.0,43,0.00,,SCT060,0.00,VWS V14.01,2013-02-01 05:17:00,
2013-02-01 00:18:00,30.9,11.6,29.50,WSW,257,3.0,6.0,44,0.00,,SCT040,0.00,VWS V14.01,2013-02-01 05:18:00,
2013-02-01 00:19:00,30.9,11.6,29.50,West,274,4.0,7.0,44,0.00,,SCT060,0.00,VWS V14.01,2013-02-01 05:19:00,
2013-02-01 00:20:00,30.9,11.6,29.50,SW,225,5.0,6.0,44,0.00,,SCT060,0.00,VWS V14.01,2013-02-01 05:20:00,
2013-02-01 00:21:00,30.9,11.6,29.50,South,177,8.0,13.0,44,0.00,,SCT060,0.00,VWS V14.01,2013-02-01 05:21:00,
2013-02-01 00:22:00,30.9,11.6,29.50,South,174,2.0,9.0,44,0.00,,SCT060,0.00,VWS V14.01,2013-02-01 05:22:00,
2013-02-01 00:23:00,30.8,11.5,29.50,West,266,4.0,6.0,44,0.00,,SCT040,0.00,VWS V14.01,2013-02-01 05:23:00,
2013-02-01 00:24:00,30.8,11.5,29.50,South,183,4.0,6.0,44,0.00,,SCT060,0.00,VWS V14.01,2013-02-01 05:24:00,
2013-02-01 00:25:00,30.8,11.5,29.50,NW,322,7.0,10.0,44,0.00,,SCT060,0.00,VWS V14.01,2013-02-01 05:25:00,
2013-02-01 00:26:00,30.8,11.5,29.51,WNW,302,6.0,11.0,44,0.00,,SCT060,0.00,VWS V14.01,2013-02-01 05:26:00,
2013-02-01 00:27:00,30.7,11.4,29.50,WSW,255,4.0,7.0,44,0.00,,SCT060,0.00,VWS V14.01,2013-02-01 05:27:00,
2013-02-01 00:28:00,30.7,11.4,29.51,West,281,3.0,7.0,44,0.00,,SCT060,0.00,VWS V14.01,2013-02-01 05:28:00,
2013-02-01 00:29:00,30.7,11.4,29.51,West,264,3.0,9.0,44,0.00,,SCT040,0.00,VWS V14.01,2013-02-01 05:29:00,
2013-02-01 00:30:00,30.7,11.4,29.50,WNW,291,3.0,9.0,44,0.00,,SCT060,0.00,VWS V14.01,2013-02-01 05:30:00,
2013-02-01 00:31:00,30.7,11.4,29.50,West,274,5.0,7.0,44,0.00,,SCT060,0.00,VWS V14.01,2013-02-01 05:31:00,
2013-02-01 00:32:00,30.6,11.3,29.50,West,281,10.0,15.0,44,0.00,,SCT060,0.00,VWS V14.01,2013-02-01 05:32:00,
2013-02-01 00:33:00,30.6,11.3,29.51,WSW,253,10.0,15.0,44,0.00,,SCT060,0.00,VWS V14.01,2013-02-01 05:33:00,
2013-02-01 00:34:00,30.7,11.4,29.51,SSW,203,3.0,9.0,44,0.00,,SCT040,0.00,VWS V14.01,2013-02-01 05:34:00,
2013-02-01 00:35:00,30.7,11.4,29.51,SSW,203,3.0,9.0,44,0.00,,SCT060,0.00,VWS V14.01,2013-02-01 05:35:00,
2013-02-01 00:36:00,30.7,11.4,29.51,NW,316,9.0,12.0,44,0.00,,SCT060,0.00,VWS V14.01,2013-02-01 05:36:00,
2013-02-01 00:37:00,30.7,11.4,29.51,SW,214,2.0,11.0,44,0.00,,SCT060,0.00,VWS V14.01,2013-02-01 05:37:00,
2013-02-01 00:38:00,30.7,11.4,29.51,WNW,284,3.0,10.0,44,0.00,,SCT060,0.00,VWS V14.01,2013-02-01 05:38:00,
2013-02-01 00:39:00,30.7,10.9,29.51,WSW,253,2.0,2.0,43,0.00,,SCT040,0.00,VWS V14.01,2013-02-01 05:39:00,
2013-02-01 00:40:00,30.7,10.9,29.51,SSW,205,2.0,4.0,43,0.00,,SCT060,0.00,VWS V14.01,2013-02-01 05:40:00,
2013-02-01 00:41:00,30.7,11.4,29.51,SW,231,5.0,5.0,44,0.00,,SCT060,0.00,VWS V14.01,2013-02-01 05:41:00,
2013-02-01 00:42:00,30.6,11.3,29.51,West,280,3.0,11.0,44,0.00,,SCT060,0.00,VWS V14.01,2013-02-01 05:42:00,
2013-02-01 00:43:00,30.6,11.3,29.51,SW,219,0.0,9.0,44,0.00,,SCT060,0.00,VWS V14.01,2013-02-01 05:43:00,
2013-02-01 00:44:00,30.5,11.2,29.51,WSW,255,4.0,4.0,44,0.00,,SCT040,0.00,VWS V14.01,2013-02-01 05:44:00,
2013-02-01 00:45:00,30.6,11.3,29.51,SW,231,2.0,5.0,44,0.00,,SCT060,0.00,VWS V14.01,2013-02-01 05:45:00,
2013-02-01 00:46:00,30.6,11.8,29.51,WSW,256,1.0,4.0,45,0.00,,SCT060,0.00,VWS V14.01,2013-02-01 05:46:00,
2013-02-01 00:47:00,30.5,11.7,29.51,West,281,1.0,5.0,45,0.00,,SCT060,0.00,VWS V14.01,2013-02-01 05:47:00,
2013-02-01 00:48:00,30.5,11.7,29.51,WSW,253,4.0,8.0,45,0.00,,SCT060,0.00,VWS V14.01,2013-02-01 05:48:00,
2013-02-01 00:49:00,30.4,12.1,29.51,WSW,243,0.0,1.0,46,0.00,,SCT040,0.00,VWS V14.01,2013-02-01 05:49:00,
2013-02-01 00:50:00,30.4,11.6,29.51,WSW,250,1.0,4.0,45,0.00,,SCT060,0.00,VWS V14.01,2013-02-01 05:50:00,
2013-02-01 00:51:00,30.4,12.1,29.51,SSE,157,3.0,5.0,46,0.00,,SCT060,0.00,VWS V14.01,2013-02-01 05:51:00,
2013-02-01 00:52:00,30.4,12.1,29.51,South,180,3.0,4.0,46,0.00,,SCT060,0.00,VWS V14.01,2013-02-01 05:52:00,
2013-02-01 00:53:00,30.3,12.0,29.51,WSW,250,8.0,8.0,46,0.00,,SCT060,0.00,VWS V14.01,2013-02-01 05:53:00,
2013-02-01 00:54:00,30.2,12.4,29.51,NW,316,2.0,5.0,47,0.00,,SCT040,0.00,VWS V14.01,2013-02-01 05:54:00,
2013-02-01 00:55:00,30.2,12.4,29.51,West,270,3.0,8.0,47,0.00,,SCT060,0.00,VWS V14.01,2013-02-01 05:55:00,
2013-02-01 00:56:00,30.2,12.4,29.51,WSW,246,5.0,11.0,47,0.00,,SCT060,0.00,VWS V14.01,2013-02-01 05:56:00,
2013-02-01 00:57:00,30.2,12.4,29.51,SE,142,3.0,5.0,47,0.00,,SCT060,0.00,VWS V14.01,2013-02-01 05:57:00,
2013-02-01 00:58:00,30.2,12.9,29.51,East,101,1.0,4.0,48,0.00,,SCT060,0.00,VWS V14.01,2013-02-01 05:58:00,
2013-02-01 00:59:00,30.1,12.8,29.51,WSW,253,1.0,5.0,48,0.00,,SCT040,0.00,VWS V14.01,2013-02-01 05:59:00,
2013-02-01 01:00:00,30.1,12.8,29.51,WSW,246,5.0,6.0,48,0.00,,SCT060,0.00,VWS V14.01,2013-02-01 06:00:00,
2013-02-01 01:01:00,30.0,12.7,29.51,West,269,1.0,5.0,48,0.00,,SCT060,0.00,VWS V14.01,2013-02-01 06:01:00,
2013-02-01 01:02:00,30.0,12.7,29.51,West,269,7.0,9.0,48,0.00,,SCT060,0.00,VWS V14.01,2013-02-01 06:02:00,
2013-02-01 01:03:00,30.0,12.7,29.51,WSW,252,2.0,7.0,48,0.00,,SCT060,0.00,VWS V14.01,2013-02-01 06:03:00,
2013-02-01 01:04:00,30.0,12.7,29.51,SW,225,3.0,6.0,48,0.00,,SCT060,0.00,VWS V14.01,2013-02-01 06:04:00,
2013-02-01 01:05:00,30.0,13.2,29.51,SW,226,3.0,5.0,49,0.00,,FEW060,0.00,VWS V14.01,2013-02-01 06:05:00,
2013-02-01 01:06:00,30.0,13.2,29.51,WSW,252,4.0,5.0,49,0.00,,SCT060,0.00,VWS V14.01,2013-02-01 06:06:00,
2013-02-01 01:07:00,30.0,13.2,29.51,West,259,5.0,7.0,49,0.00,,SCT060,0.00,VWS V14.01,2013-02-01 06:07:00,
2013-02-01 01:08:00,30.0,12.7,29.51,SW,226,2.0,8.0,48,0.00,,SCT060,0.00,VWS V14.01,2013-02-01 06:08:00,
2013-02-01 01:09:00,30.0,12.7,29.51,ESE,113,2.0,6.0,48,0.00,,SCT060,0.00,VWS V14.01,2013-02-01 06:09:00,
2013-02-01 01:10:00,29.9,13.1,29.51,West,262,4.0,5.0,49,0.00,,FEW060,0.00,VWS V14.01,2013-02-01 06:10:00,
2013-02-01 01:11:00,29.9,13.1,29.51,SW,231,5.0,9.0,49,0.00,,SCT060,0.00,VWS V14.01,2013-02-01 06:11:00,
2013-02-01 01:12:00,29.9,12.6,29.52,WSW,257,4.0,5.0,48,0.00,,SCT060,0.00,VWS V14.01,2013-02-01 06:12:00,
2013-02-01 01:13:00,29.9,13.1,29.52,West,271,1.0,4.0,49,0.00,,SCT060,0.00,VWS V14.01,2013-02-01 06:13:00,
2013-02-01 01:14:00,29.9,12.6,29.52,WSW,243,2.0,4.0,48,0.00,,SCT060,0.00,VWS V14.01,2013-02-01 06:14:00,
2013-02-01 01:15:00,29.9,12.6,29.52,West,270,1.0,3.0,48,0.00,,FEW060,0.00,VWS V14.01,2013-02-01 06:15:00,
2013-02-01 01:16:00,29.9,12.6,29.52,WSW,252,3.0,12.0,48,0.00,,SCT060,0.00,VWS V14.01,2013-02-01 06:16:00,
2013-02-01 01:17:00,29.9,12.6,29.52,West,264,4.0,5.0,48,0.00,,SCT060,0.00,VWS V14.01,2013-02-01 06:17:00,
2013-02-01 01:18:00,29.9,12.6,29.52,SW,235,2.0,5.0,48,0.00,,SCT060,0.00,VWS V14.01,2013-02-01 06:18:00,
2013-02-01 01:19:00,29.9,13.1,29.52,West,259,3.0,5.0,49,0.00,,SCT060,0.00,VWS V14.01,2013-02-01 06:19:00,
2013-02-01 01:20:00,29.9,13.1,29.52,SW,223,3.0,6.0,49,0.00,,FEW060,0.00,VWS V14.01,2013-02-01 06:20:00,
2013-02-01 01:21:00,29.9,13.1,29.52,WNW,300,4.0,5.0,49,0.00,,SCT060,0.00,VWS V14.01,2013-02-01 06:21:00,
2013-02-01 01:22:00,29.9,13.1,29.53,WSW,243,2.0,8.0,49,0.00,,SCT060,0.00,VWS V14.01,2013-02-01 06:22:00,
2013-02-01 01:23:00,29.9,12.6,29.53,WNW,293,3.0,8.0,48,0.00,,SCT060,0.00,VWS V14.01,2013-02-01 06:23:00,
2013-02-01 01:24:00,29.9,12.6,29.52,North,6,6.0,7.0,48,0.00,,SCT060,0.00,VWS V14.01,2013-02-01 06:24:00,
2013-02-01 01:25:00,30.0,12.7,29.52,WSW,255,4.0,6.0,48,0.00,,FEW060,0.00,VWS V14.01,2013-02-01 06:25:00,
2013-02-01 01:26:00,29.9,12.6,29.52,WSW,253,5.0,7.0,48,0.00,,SCT060,0.00,VWS V14.01,2013-02-01 06:26:00,
2013-02-01 01:27:00,29.9,12.6,29.53,North,5,1.0,6.0,48,0.00,,SCT060,0.00,VWS V14.01,2013-02-01 06:27:00,
2013-02-01 01:28:00,29.9,12.6,29.53,WNW,283,2.0,6.0,48,0.00,,SCT060,0.00,VWS V14.01,2013-02-01 06:28:00,
2013-02-01 01:29:00,29.9,12.6,29.53,NNW,341,4.0,9.0,48,0.00,,SCT060,0.00,VWS V14.01,2013-02-01 06:29:00,
2013-02-01 01:30:00,29.9,12.6,29.53,West,266,3.0,4.0,48,0.00,,FEW060,0.00,VWS V14.01,2013-02-01 06:30:00,
2013-02-01 01:31:00,29.9,12.6,29.53,SW,235,2.0,6.0,48,0.00,,SCT060,0.00,VWS V14.01,2013-02-01 06:31:00,
2013-02-01 01:32:00,29.9,13.1,29.53,ESE,116,2.0,4.0,49,0.00,,SCT060,0.00,VWS V14.01,2013-02-01 06:32:00,
2013-02-01 01:33:00,29.8,13.0,29.53,West,259,3.0,3.0,49,0.00,,SCT060,0.00,VWS V14.01,2013-02-01 06:33:00,
2013-02-01 01:34:00,29.8,13.0,29.53,WSW,253,3.0,4.0,49,0.00,,SCT060,0.00,VWS V14.01,2013-02-01 06:34:00,
2013-02-01 01:35:00,29.8,13.0,29.53,South,187,2.0,5.0,49,0.00,,SCT060,0.00,VWS V14.01,2013-02-01 06:35:00,
2013-02-01 01:36:00,29.7,12.9,29.53,SW,226,2.0,6.0,49,0.00,,FEW060,0.00,VWS V14.01,2013-02-01 06:36:00,
2013-02-01 01:37:00,29.7,12.9,29.53,WSW,238,3.0,6.0,49,0.00,,SCT060,0.00,VWS V14.01,2013-02-01 06:37:00,
2013-02-01 01:38:00,29.7,12.9,29.53,WNW,297,4.0,8.0,49,0.00,,SCT060,0.00,VWS V14.01,2013-02-01 06:38:00,
2013-02-01 01:39:00,29.7,12.9,29.53,SW,233,5.0,7.0,49,0.00,,SCT060,0.00,VWS V14.01,2013-02-01 06:39:00,
2013-02-01 01:40:00,29.7,12.4,29.53,WSW,248,2.0,6.0,48,0.00,,SCT060,0.00,VWS V14.01,2013-02-01 06:40:00,
2013-02-01 01:41:00,29.7,12.4,29.53,SW,226,7.0,7.0,48,0.00,,FEW060,0.00,VWS V14.01,2013-02-01 06:41:00,
2013-02-01 01:42:00,29.7,12.4,29.53,WSW,252,8.0,8.0,48,0.00,,SCT060,0.00,VWS V14.01,2013-02-01 06:42:00,
2013-02-01 01:43:00,29.7,12.4,29.53,WSW,253,3.0,9.0,48,0.00,,SCT060,0.00,VWS V14.01,2013-02-01 06:43:00,
2013-02-01 01:44:00,29.7,12.4,29.53,NW,321,2.0,7.0,48,0.00,,SCT060,0.00,VWS V14.01,2013-02-01 06:44:00,
2013-02-01 01:45:00,29.7,12.4,29.53,West,276,3.0,9.0,48,0.00,,SCT060,0.00,VWS V14.01,2013-02-01 06:45:00,
2013-02-01 01:46:00,29.7,12.9,29.54,NNW,344,1.0,2.0,49,0.00,,FEW060,0.00,VWS V14.01,2013-02-01 06:46:00,
2013-02-01 01:47:00,29.8,13.0,29.54,NNW,340,2.0,7.0,49,0.00,,SCT060,0.00,VWS V14.01,2013-02-01 06:47:00,
2013-02-01 01:48:00,29.7,12.9,29.54,WNW,288,3.0,3.0,49,0.00,,SCT060,0.00,VWS V14.01,2013-02-01 06:48:00,
2013-02-01 01:49:00,29.7,12.9,29.54,West,263,2.0,3.0,49,0.00,,SCT060,0.00,VWS V14.01,2013-02-01 06:49:00,
2013-02-01 01:50:00,29.7,12.9,29.54,WNW,290,4.0,4.0,49,0.00,,SCT060,0.00,VWS V14.01,2013-02-01 06:50:00,
2013-02-01 01:51:00,29.6,12.8,29.54,West,267,2.0,3.0,49,0.00,,FEW060,0.00,VWS V14.01,2013-02-01 06:51:00,
2013-02-01 01:52:00,29.6,12.8,29.54,WSW,253,3.0,10.0,49,0.00,,SCT060,0.00,VWS V14.01,2013-02-01 06:52:00,
2013-02-01 01:53:00,29.6,12.8,29.54,SW,228,4.0,4.0,49,0.00,,SCT060,0.00,VWS V14.01,2013-02-01 06:53:00,
2013-02-01 01:54:00,29.6,13.3,29.53,West,274,1.0,4.0,50,0.00,,SCT060,0.00,VWS V14.01,2013-02-01 06:54:00,
2013-02-01 01:55:00,29.6,13.3,29.53,West,274,2.0,5.0,50,0.00,,SCT060,0.00,VWS V14.01,2013-02-01 06:55:00,
2013-02-01 01:56:00,29.5,13.2,29.53,West,264,3.0,3.0,50,0.00,,FEW060,0.00,VWS V14.01,2013-02-01 06:56:00,
2013-02-01 01:57:00,29.5,13.2,29.53,ENE,65,2.0,7.0,50,0.00,,SCT060,0.00,VWS V14.01,2013-02-01 06:57:00,
2013-02-01 01:58:00,29.4,13.1,29.53,WNW,291,1.0,6.0,50,0.00,,SCT060,0.00,VWS V14.01,2013-02-01 06:58:00,
2013-02-01 01:59:00,29.4,13.1,29.53,WNW,293,2.0,3.0,50,0.00,,SCT060,0.00,VWS V14.01,2013-02-01 06:59:00,
2013-02-01 02:00:00,29.4,13.1,29.53,WNW,283,3.0,6.0,50,0.00,,SCT060,0.00,VWS V14.01,2013-02-01 07:00:00,
2013-02-01 02:01:00,29.4,13.1,29.54,South,183,1.0,4.0,50,0.00,,FEW060,0.00,VWS V14.01,2013-02-01 07:01:00,
2013-02-01 02:02:00,29.4,13.1,29.54,WNW,284,3.0,5.0,50,0.00,,SCT060,0.00,VWS V14.01,2013-02-01 07:02:00,
2013-02-01 02:03:00,29.4,13.1,29.54,WSW,243,14.0,14.0,50,0.00,,SCT060,0.00,VWS V14.01,2013-02-01 07:03:00,
2013-02-01 02:04:00,29.4,12.6,29.53,WNW,294,3.0,14.0,49,0.00,,SCT060,0.00,VWS V14.01,2013-02-01 07:04:00,
2013-02-01 02:05:00,29.4,12.6,29.54,West,259,5.0,9.0,49,0.00,,SCT060,0.00,VWS V14.01,2013-02-01 07:05:00,
2013-02-01 02:06:00,29.4,12.6,29.54,West,271,3.0,4.0,49,0.00,,FEW060,0.00,VWS V14.01,2013-02-01 07:06:00,
2013-02-01 02:07:00,29.5,12.7,29.54,WSW,250,3.0,10.0,49,0.00,,SCT060,0.00,VWS V14.01,2013-02-01 07:07:00,
2013-02-01 02:08:00,29.5,12.7,29.54,WSW,249,3.0,4.0,49,0.00,,SCT060,0.00,VWS V14.01,2013-02-01 07:08:00,
2013-02-01 02:09:00,29.5,12.7,29.54,West,277,5.0,9.0,49,0.00,,SCT060,0.00,VWS V14.01,2013-02-01 07:09:00,
2013-02-01 02:10:00,29.5,12.7,29.54,West,268,5.0,5.0,49,0.00,,SCT060,0.00,VWS V14.01,2013-02-01 07:10:00,
2013-02-01 02:11:00,29.4,12.6,29.54,SW,231,2.0,4.0,49,0.00,,FEW060,0.00,VWS V14.01,2013-02-01 07:11:00,
2013-02-01 02:12:00,29.4,12.6,29.54,West,259,3.0,3.0,49,0.00,,SCT060,0.00,VWS V14.01,2013-02-01 07:12:00,
2013-02-01 02:13:00,29.4,12.6,29.54,WSW,253,2.0,4.0,49,0.00,,SCT060,0.00,VWS V14.01,2013-02-01 07:13:00,
2013-02-01 02:14:00,29.4,12.6,29.54,WNW,300,2.0,5.0,49,0.00,,SCT060,0.00,VWS V14.01,2013-02-01 07:14:00,
2013-02-01 02:15:00,29.4,12.6,29.54,West,273,3.0,4.0,49,0.00,,SCT060,0.00,VWS V14.01,2013-02-01 07:15:00,
2013-02-01 02:16:00,29.4,12.6,29.54,South,174,2.0,4.0,49,0.00,,SCT060,0.00,VWS V14.01,2013-02-01 07:16:00,
2013-02-01 02:17:00,29.3,12.5,29.54,West,259,1.0,7.0,49,0.00,,FEW060,0.00,VWS V14.01,2013-02-01 07:17:00,
2013-02-01 02:18:00,29.3,12.5,29.54,SSE,167,4.0,9.0,49,0.00,,SCT060,0.00,VWS V14.01,2013-02-01 07:18:00,
2013-02-01 02:19:00,29.3,12.5,29.54,NW,315,3.0,13.0,49,0.00,,SCT060,0.00,VWS V14.01,2013-02-01 07:19:00,
2013-02-01 02:20:00,29.3,12.1,29.54,West,266,2.0,6.0,48,0.00,,SCT060,0.00,VWS V14.01,2013-02-01 07:20:00,
2013-02-01 02:21:00,29.3,12.1,29.54,West,263,5.0,5.0,48,0.00,,SCT060,0.00,VWS V14.01,2013-02-01 07:21:00,
2013-02-01 02:22:00,29.4,12.1,29.54,ESE,106,2.0,5.0,48,0.00,,FEW060,0.00,VWS V14.01,2013-02-01 07:22:00,
2013-02-01 02:23:00,29.4,12.1,29.54,ESE,106,2.0,5.0,48,0.00,,SCT060,0.00,VWS V14.01,2013-02-01 07:23:00,
2013-02-01 02:24:00,29.4,12.6,29.54,SW,233,4.0,5.0,49,0.00,,SCT060,0.00,VWS V14.01,2013-02-01 07:24:00,
2013-02-01 02:25:00,29.3,12.5,29.54,West,262,3.0,8.0,49,0.00,,SCT060,0.00,VWS V14.01,2013-02-01 07:25:00,
2013-02-01 02:26:00,29.3,12.5,29.54,NNW,346,4.0,11.0,49,0.00,,SCT060,0.00,VWS V14.01,2013-02-01 07:26:00,
2013-02-01 02:27:00,29.3,12.5,29.54,West,259,5.0,9.0,49,0.00,,SCT060,0.00,VWS V14.01,2013-02-01 07:27:00,
2013-02-01 02:28:00,29.3,12.1,29.54,West,281,3.0,8.0,48,0.00,,SCT060,0.00,VWS V14.01,2013-02-01 07:28:00,
2013-02-01 02:29:00,29.3,12.1,29.54,WSW,253,1.0,8.0,48,0.00,,SCT060,0.00,VWS V14.01,2013-02-01 07:29:00,
2013-02-01 02:30:00,29.3,12.5,29.54,WSW,243,2.0,4.0,49,0.00,,SCT060,0.00,VWS V14.01,2013-02-01 07:30:00,
2013-02-01 02:31:00,29.3,12.5,29.55,SW,228,5.0,6.0,49,0.00,,SCT060,0.00,VWS V14.01,2013-02-01 07:31:00,
2013-02-01 02:32:00,29.3,12.5,29.54,WSW,240,12.0,12.0,49,0.00,,FEW060,0.00,VWS V14.01,2013-02-01 07:32:00,
2013-02-01 02:33:00,29.3,12.5,29.54,NE,56,5.0,7.0,49,0.00,,SCT060,0.00,VWS V14.01,2013-02-01 07:33:00,
2013-02-01 02:34:00,29.3,12.5,29.54,West,277,5.0,13.0,49,0.00,,SCT060,0.00,VWS V14.01,2013-02-01 07:34:00,
2013-02-01 02:35:00,29.3,12.1,29.55,West,263,4.0,16.0,48,0.00,,SCT060,0.00,VWS V14.01,2013-02-01 07:35:00,
2013-02-01 02:36:00,29.3,12.1,29.55,West,270,3.0,11.0,48,0.00,,SCT060,0.00,VWS V14.01,2013-02-01 07:36:00,
2013-02-01 02:37:00,29.3,12.1,29.55,West,266,3.0,4.0,48,0.00,,SCT060,0.00,VWS V14.01,2013-02-01 07:37:00,
2013-02-01 02:38:00,29.3,12.1,29.55,SSE,148,2.0,8.0,48,0.00,,SCT060,0.00,VWS V14.01,2013-02-01 07:38:00,
2013-02-01 02:39:00,29.3,12.1,29.55,West,277,1.0,9.0,48,0.00,,SCT060,0.00,VWS V14.01,2013-02-01 07:39:00,
2013-02-01 02:40:00,29.3,12.1,29.55,WSW,243,6.0,8.0,48,0.00,,SCT060,0.00,VWS V14.01,2013-02-01 07:40:00,
2013-02-01 02:41:00,29.3,12.1,29.54,SW,218,2.0,8.0,48,0.00,,SCT060,0.00,VWS V14.01,2013-02-01 07:41:00,
2013-02-01 02:42:00,29.2,12.4,29.55,SSW,201,4.0,10.0,49,0.00,,SCT060,0.00,VWS V14.01,2013-02-01 07:42:00,
2013-02-01 02:43:00,29.2,12.4,29.55,WNW,288,8.0,9.0,49,0.00,,SCT060,0.00,VWS V14.01,2013-02-01 07:43:00,
2013-02-01 02:44:00,29.2,12.4,29.55,WSW,256,4.0,10.0,49,0.00,,SCT060,0.00,VWS V14.01,2013-02-01 07:44:00,
2013-02-01 02:45:00,29.2,12.4,29.55,West,262,5.0,8.0,49,0.00,,SCT060,0.00,VWS V14.01,2013-02-01 07:45:00,
2013-02-01 02:46:00,29.2,12.4,29.55,SE,133,1.0,6.0,49,0.00,,SCT060,0.00,VWS V14.01,2013-02-01 07:46:00,
2013-02-01 02:47:00,29.1,12.3,29.55,SSW,197,6.0,7.0,49,0.00,,SCT060,0.00,VWS V14.01,2013-02-01 07:47:00,
2013-02-01 02:48:00,29.1,12.3,29.55,West,268,1.0,5.0,49,0.00,,SCT060,0.00,VWS V14.01,2013-02-01 07:48:00,
2013-02-01 02:49:00,29.1,12.8,29.55,NNW,328,3.0,8.0,50,0.00,,SCT060,0.00,VWS V14.01,2013-02-01 07:49:00,
2013-02-01 02:50:00,29.0,12.7,29.55,NNW,347,2.0,10.0,50,0.00,,SCT060,0.00,VWS V14.01,2013-02-01 07:50:00,
2013-02-01 02:51:00,29.0,12.7,29.55,South,169,4.0,9.0,50,0.00,,SCT060,0.00,VWS V14.01,2013-02-01 07:51:00,
2013-02-01 02:52:00,29.0,12.7,29.54,WSW,240,13.0,13.0,50,0.00,,SCT060,0.00,VWS V14.01,2013-02-01 07:52:00,
2013-02-01 02:53:00,29.0,12.2,29.55,South,191,5.0,6.0,49,0.00,,SCT060,0.00,VWS V14.01,2013-02-01 07:53:00,
2013-02-01 02:54:00,29.0,12.2,29.55,North,8,6.0,17.0,49,0.00,,SCT060,0.00,VWS V14.01,2013-02-01 07:54:00,
2013-02-01 02:55:00,29.0,12.2,29.55,WSW,250,6.0,17.0,49,0.00,,SCT060,0.00,VWS V14.01,2013-02-01 07:55:00,
2013-02-01 02:56:00,29.1,11.9,29.55,West,269,5.0,15.0,48,0.00,,SCT060,0.00,VWS V14.01,2013-02-01 07:56:00,
2013-02-01 02:57:00,29.1,11.9,29.56,WNW,283,6.0,6.0,48,0.00,,SCT060,0.00,VWS V14.01,2013-02-01 07:57:00,
2013-02-01 02:58:00,29.1,12.3,29.55,West,281,2.0,10.0,49,0.00,,SCT060,0.00,VWS V14.01,2013-02-01 07:58:00,
2013-02-01 02:59:00,29.1,12.3,29.55,West,281,1.0,10.0,49,0.00,,SCT060,0.00,VWS V14.01,2013-02-01 07:59:00,
2013-02-01 03:00:00,29.0,11.8,29.55,SW,218,7.0,12.0,48,0.00,,SCT060,0.00,VWS V14.01,2013-02-01 08:00:00,
2013-02-01 03:01:00,29.1,11.9,29.56,West,259,7.0,7.0,48,0.00,,SCT060,0.00,VWS V14.01,2013-02-01 08:01:00,
2013-02-01 03:02:00,29.0,12.2,29.55,WSW,243,9.0,12.0,49,0.00,,SCT060,0.00,VWS V14.01,2013-02-01 08:02:00,
2013-02-01 03:03:00,29.0,12.2,29.56,SSW,208,2.0,3.0,49,0.00,,SCT060,0.00,VWS V14.01,2013-02-01 08:03:00,
2013-02-01 03:04:00,29.0,12.2,29.56,WNW,282,3.0,8.0,49,0.00,,SCT060,0.00,VWS V14.01,2013-02-01 08:04:00,
2013-02-01 03:05:00,29.0,11.8,29.56,North,356,2.0,8.0,48,0.00,,SCT060,0.00,VWS V14.01,2013-02-01 08:05:00,
2013-02-01 03:06:00,29.0,12.2,29.56,West,259,2.0,5.0,49,0.00,,SCT060,0.00,VWS V14.01,2013-02-01 08:06:00,
2013-02-01 03:07:00,29.0,12.2,29.56,West,264,10.0,10.0,49,0.00,,SCT060,0.00,VWS V14.01,2013-02-01 08:07:00,
2013-02-01 03:08:00,29.0,11.8,29.56,WSW,248,5.0,5.0,48,0.00,,SCT060,0.00,VWS V14.01,2013-02-01 08:08:00,
2013-02-01 03:09:00,29.0,11.8,29.56,WSW,253,2.0,6.0,48,0.00,,SCT060,0.00,VWS V14.01,2013-02-01 08:09:00,
2013-02-01 03:10:00,29.0,12.2,29.56,WSW,249,4.0,6.0,49,0.00,,SCT060,0.00,VWS V14.01,2013-02-01 08:10:00,
2013-02-01 03:11:00,28.9,12.1,29.56,WSW,249,3.0,7.0,49,0.00,,SCT060,0.00,VWS V14.01,2013-02-01 08:11:00,
2013-02-01 03:12:00,28.9,12.1,29.56,West,271,2.0,6.0,49,0.00,,SCT060,0.00,VWS V14.01,2013-02-01 08:12:00,
2013-02-01 03:13:00,28.8,12.1,29.56,SW,228,6.0,6.0,49,0.00,,SCT060,0.00,VWS V14.01,2013-02-01 08:13:00,
2013-02-01 03:14:00,28.8,12.1,29.56,WSW,256,1.0,12.0,49,0.00,,SCT060,0.00,VWS V14.01,2013-02-01 08:14:00,
2013-02-01 03:15:00,28.8,12.1,29.56,West,263,5.0,6.0,49,0.00,,SCT060,0.00,VWS V14.01,2013-02-01 08:15:00,
2013-02-01 03:16:00,28.8,12.1,29.56,West,274,8.0,10.0,49,0.00,,SCT060,0.00,VWS V14.01,2013-02-01 08:16:00,
2013-02-01 03:17:00,28.8,12.1,29.56,West,264,7.0,8.0,49,0.00,,SCT060,0.00,VWS V14.01,2013-02-01 08:17:00,
2013-02-01 03:18:00,28.8,12.1,29.56,SSW,212,4.0,8.0,49,0.00,,SCT060,0.00,VWS V14.01,2013-02-01 08:18:00,
2013-02-01 03:19:00,28.8,12.1,29.56,WNW,288,6.0,12.0,49,0.00,,SCT060,0.00,VWS V14.01,2013-02-01 08:19:00,
2013-02-01 03:20:00,28.8,12.1,29.56,WSW,250,2.0,8.0,49,0.00,,SCT060,0.00,VWS V14.01,2013-02-01 08:20:00,
2013-02-01 03:21:00,28.8,12.1,29.56,West,277,8.0,13.0,49,0.00,,SCT060,0.00,VWS V14.01,2013-02-01 08:21:00,
2013-02-01 03:22:00,28.8,11.6,29.56,West,273,7.0,10.0,48,0.00,,SCT060,0.00,VWS V14.01,2013-02-01 08:22:00,
2013-02-01 03:23:00,28.8,11.6,29.56,NW,315,2.0,6.0,48,0.00,,SCT060,0.00,VWS V14.01,2013-02-01 08:23:00,
2013-02-01 03:24:00,28.8,11.6,29.56,WSW,253,4.0,7.0,48,0.00,,SCT060,0.00,VWS V14.01,2013-02-01 08:24:00,
2013-02-01 03:25:00,28.8,12.1,29.56,West,281,3.0,11.0,49,0.00,,SCT060,0.00,VWS V14.01,2013-02-01 08:25:00,
2013-02-01 03:26:00,28.8,12.1,29.56,SSE,167,6.0,8.0,49,0.00,,SCT060,0.00,VWS V14.01,2013-02-01 08:26:00,
2013-02-01 03:27:00,28.7,12.0,29.56,WNW,288,1.0,12.0,49,0.00,,SCT060,0.00,VWS V14.01,2013-02-01 08:27:00,
2013-02-01 03:28:00,28.7,12.0,29.56,West,271,4.0,4.0,49,0.00,,SCT060,0.00,VWS V14.01,2013-02-01 08:28:00,
2013-02-01 03:29:00,28.7,12.0,29.56,West,266,2.0,4.0,49,0.00,,SCT060,0.00,VWS V14.01,2013-02-01 08:29:00,
2013-02-01 03:30:00,28.7,12.0,29.56,WSW,253,3.0,5.0,49,0.00,,SCT060,0.00,VWS V14.01,2013-02-01 08:30:00,
2013-02-01 03:31:00,28.6,11.9,29.56,WSW,252,2.0,6.0,49,0.00,,SCT060,0.00,VWS V14.01,2013-02-01 08:31:00,
2013-02-01 03:32:00,28.6,11.9,29.56,West,281,9.0,12.0,49,0.00,,SCT060,0.00,VWS V14.01,2013-02-01 08:32:00,
2013-02-01 03:33:00,28.6,11.4,29.56,NW,312,2.0,16.0,48,0.00,,FEW060,0.00,VWS V14.01,2013-02-01 08:33:00,
2013-02-01 03:34:00,28.6,11.4,29.56,West,266,16.0,16.0,48,0.00,,SCT060,0.00,VWS V14.01,2013-02-01 08:34:00,
2013-02-01 03:35:00,28.7,11.5,29.56,WSW,253,6.0,16.0,48,0.00,,SCT060,0.00,VWS V14.01,2013-02-01 08:35:00,
2013-02-01 03:36:00,28.7,11.5,29.56,WSW,252,8.0,9.0,48,0.00,,SCT060,0.00,VWS V14.01,2013-02-01 08:36:00,
2013-02-01 03:37:00,28.7,11.5,29.56,WSW,246,4.0,10.0,48,0.00,,SCT060,0.00,VWS V14.01,2013-02-01 08:37:00,
2013-02-01 03:38:00,28.7,11.5,29.57,West,264,5.0,10.0,48,0.00,,FEW060,0.00,VWS V14.01,2013-02-01 08:38:00,
2013-02-01 03:39:00,28.7,11.5,29.57,West,267,2.0,6.0,48,0.00,,SCT060,0.00,VWS V14.01,2013-02-01 08:39:00,
2013-02-01 03:40:00,28.7,11.5,29.56,WSW,256,2.0,10.0,48,0.00,,SCT060,0.00,VWS V14.01,2013-02-01 08:40:00,
2013-02-01 03:41:00,28.7,11.5,29.57,SW,228,4.0,10.0,48,0.00,,SCT060,0.00,VWS V14.01,2013-02-01 08:41:00,
2013-02-01 03:42:00,28.7,11.5,29.56,WSW,257,6.0,8.0,48,0.00,,SCT060,0.00,VWS V14.01,2013-02-01 08:42:00,
2013-02-01 03:43:00,28.6,11.4,29.57,WSW,253,3.0,3.0,48,0.00,,FEW060,0.00,VWS V14.01,2013-02-01 08:43:00,
2013-02-01 03:44:00,28.6,11.4,29.56,WNW,294,1.0,3.0,48,0.00,,SCT060,0.00,VWS V14.01,2013-02-01 08:44:00,
2013-02-01 03:45:00,28.6,11.4,29.57,West,269,5.0,9.0,48,0.00,,SCT060,0.00,VWS V14.01,2013-02-01 08:45:00,
2013-02-01 03:46:00,28.6,11.4,29.57,West,269,4.0,9.0,48,0.00,,SCT060,0.00,VWS V14.01,2013-02-01 08:46:00,
2013-02-01 03:47:00,28.6,11.4,29.57,NNW,330,2.0,6.0,48,0.00,,SCT060,0.00,VWS V14.01,2013-02-01 08:47:00,
2013-02-01 03:48:00,28.6,11.4,29.57,SSW,195,1.0,7.0,48,0.00,,SCT060,0.00,VWS V14.01,2013-02-01 08:48:00,
2013-02-01 03:49:00,28.6,11.4,29.56,WSW,238,4.0,10.0,48,0.00,,FEW060,0.00,VWS V14.01,2013-02-01 08:49:00,
2013-02-01 03:50:00,28.6,11.4,29.57,WSW,257,5.0,10.0,48,0.00,,SCT060,0.00,VWS V14.01,2013-02-01 08:50:00,
2013-02-01 03:51:00,28.6,10.9,29.57,NW,322,5.0,8.0,47,0.00,,SCT060,0.00,VWS V14.01,2013-02-01 08:51:00,
2013-02-01 03:52:00,28.6,10.9,29.57,WSW,256,6.0,7.0,47,0.00,,SCT060,0.00,VWS V14.01,2013-02-01 08:52:00,
2013-02-01 03:53:00,28.6,10.9,29.57,NNW,334,1.0,9.0,47,0.00,,SCT060,0.00,VWS V14.01,2013-02-01 08:53:00,
2013-02-01 03:54:00,28.6,10.9,29.57,WSW,249,1.0,5.0,47,0.00,,FEW060,0.00,VWS V14.01,2013-02-01 08:54:00,
2013-02-01 03:55:00,28.5,10.9,29.57,WSW,250,2.0,5.0,47,0.00,,SCT060,0.00,VWS V14.01,2013-02-01 08:55:00,
2013-02-01 03:56:00,28.5,10.9,29.57,West,262,2.0,5.0,47,0.00,,SCT060,0.00,VWS V14.01,2013-02-01 08:56:00,
2013-02-01 03:57:00,28.5,11.3,29.57,West,269,7.0,7.0,48,0.00,,SCT060,0.00,VWS V14.01,2013-02-01 08:57:00,
2013-02-01 03:58:00,28.5,11.3,29.57,West,267,1.0,8.0,48,0.00,,SCT060,0.00,VWS V14.01,2013-02-01 08:58:00,
2013-02-01 03:59:00,28.5,10.9,29.57,SW,233,5.0,12.0,47,0.00,,FEW060,0.00,VWS V14.01,2013-02-01 08:59:00,
2013-02-01 04:00:00,28.5,10.9,29.57,SW,233,5.0,12.0,47,0.00,,SCT060,0.00,VWS V14.01,2013-02-01 09:00:00,
2013-02-01 04:01:00,28.5,10.9,29.58,North,357,3.0,9.0,47,0.00,,SCT060,0.00,VWS V14.01,2013-02-01 09:01:00,
2013-02-01 04:02:00,28.5,11.3,29.57,WSW,256,3.0,4.0,48,0.00,,SCT060,0.00,VWS V14.01,2013-02-01 09:02:00,
2013-02-01 04:03:00,28.5,11.3,29.57,SSW,212,5.0,6.0,48,0.00,,SCT060,0.00,VWS V14.01,2013-02-01 09:03:00,
2013-02-01 04:04:00,28.5,10.9,29.57,SW,229,5.0,5.0,47,0.00,,FEW060,0.00,VWS V14.01,2013-02-01 09:04:00,
2013-02-01 04:05:00,28.5,10.9,29.57,NW,312,3.0,10.0,47,0.00,,SCT060,0.00,VWS V14.01,2013-02-01 09:05:00,
2013-02-01 04:06:00,28.5,10.9,29.57,WSW,254,1.0,5.0,47,0.00,,SCT060,0.00,VWS V14.01,2013-02-01 09:06:00,
2013-02-01 04:07:00,28.5,10.9,29.57,West,266,0.0,3.0,47,0.00,,SCT060,0.00,VWS V14.01,2013-02-01 09:07:00,
2013-02-01 04:08:00,28.5,11.3,29.58,West,260,0.0,3.0,48,0.00,,SCT060,0.00,VWS V14.01,2013-02-01 09:08:00,
2013-02-01 04:09:00,28.4,11.2,29.58,WSW,243,3.0,7.0,48,0.00,,FEW060,0.00,VWS V14.01,2013-02-01 09:09:00,
2013-02-01 04:10:00,28.4,11.2,29.58,WSW,256,7.0,7.0,48,0.00,,SCT060,0.00,VWS V14.01,2013-02-01 09:10:00,
2013-02-01 04:11:00,28.4,10.8,29.58,WNW,284,0.0,7.0,47,0.00,,SCT060,0.00,VWS V14.01,2013-02-01 09:11:00,
2013-02-01 04:12:00,28.3,11.1,29.58,West,280,2.0,6.0,48,0.00,,SCT060,0.00,VWS V14.01,2013-02-01 09:12:00,
2013-02-01 04:13:00,28.3,10.7,29.58,SSE,162,3.0,8.0,47,0.00,,SCT060,0.00,VWS V14.01,2013-02-01 09:13:00,
2013-02-01 04:14:00,28.3,11.1,29.58,SW,228,3.0,3.0,48,0.00,,FEW060,0.00,VWS V14.01,2013-02-01 09:14:00,
2013-02-01 04:15:00,28.3,11.1,29.58,East,100,2.0,3.0,48,0.00,,SCT060,0.00,VWS V14.01,2013-02-01 09:15:00,
2013-02-01 04:16:00,28.3,11.1,29.58,WSW,249,5.0,6.0,48,0.00,,SCT060,0.00,VWS V14.01,2013-02-01 09:16:00,
2013-02-01 04:17:00,28.3,11.1,29.58,West,275,4.0,6.0,48,0.00,,SCT060,0.00,VWS V14.01,2013-02-01 09:17:00,
2013-02-01 04:18:00,28.3,11.1,29.58,WSW,243,2.0,5.0,48,0.00,,SCT060,0.00,VWS V14.01,2013-02-01 09:18:00,
2013-02-01 04:19:00,28.3,11.1,29.58,WSW,238,1.0,3.0,48,0.00,,FEW060,0.00,VWS V14.01,2013-02-01 09:19:00,
2013-02-01 04:20:00,28.3,11.1,29.58,West,271,3.0,9.0,48,0.00,,SCT060,0.00,VWS V14.01,2013-02-01 09:20:00,
2013-02-01 04:21:00,28.3,11.1,29.58,WSW,250,1.0,3.0,48,0.00,,SCT060,0.00,VWS V14.01,2013-02-01 09:21:00,
2013-02-01 04:22:00,28.2,11.0,29.58,West,266,4.0,5.0,48,0.00,,SCT060,0.00,VWS V14.01,2013-02-01 09:22:00,
2013-02-01 04:23:00,28.2,11.0,29.58,SW,217,1.0,4.0,48,0.00,,SCT060,0.00,VWS V14.01,2013-02-01 09:23:00,
2013-02-01 04:24:00,28.2,11.0,29.58,West,262,5.0,6.0,48,0.00,,FEW060,0.00,VWS V14.01,2013-02-01 09:24:00,
2013-02-01 04:25:00,28.1,10.9,29.58,WNW,284,6.0,6.0,48,0.00,,SCT060,0.00,VWS V14.01,2013-02-01 09:25:00,
2013-02-01 04:26:00,28.1,10.9,29.58,SSW,210,4.0,6.0,48,0.00,,SCT060,0.00,VWS V14.01,2013-02-01 09:26:00,
2013-02-01 04:27:00,28.1,10.9,29.58,WSW,257,5.0,13.0,48,0.00,,SCT060,0.00,VWS V14.01,2013-02-01 09:27:00,
2013-02-01 04:28:00,28.1,10.9,29.58,South,173,2.0,5.0,48,0.00,,SCT060,0.00,VWS V14.01,2013-02-01 09:28:00,
2013-02-01 04:29:00,28.2,11.0,29.58,West,268,2.0,7.0,48,0.00,,FEW060,0.00,VWS V14.01,2013-02-01 09:29:00,
2013-02-01 04:30:00,28.2,10.6,29.58,NNW,344,3.0,8.0,47,0.00,,SCT060,0.00,VWS V14.01,2013-02-01 09:30:00,
2013-02-01 04:31:00,28.1,10.9,29.58,SE,132,1.0,7.0,48,0.00,,SCT060,0.00,VWS V14.01,2013-02-01 09:31:00,
2013-02-01 04:35:00,28.1,10.9,29.59,WSW,240,2.0,4.0,48,0.00,,FEW060,0.00,VWS V14.01,2013-02-01 09:35:00,
2013-02-01 04:40:00,28.1,10.9,29.59,West,278,10.0,11.0,48,0.00,,SCT060,0.00,VWS V14.01,2013-02-01 09:40:00,
2013-02-01 04:45:00,28.1,10.9,29.59,SE,135,0.0,5.0,48,0.00,,SCT060,0.00,VWS V14.01,2013-02-01 09:45:00,
2013-02-01 04:50:00,28.0,10.9,29.59,WSW,240,4.0,6.0,48,0.00,,SCT060,0.00,VWS V14.01,2013-02-01 09:50:00,
2013-02-01 04:55:00,27.9,10.8,29.58,WNW,293,9.0,9.0,48,0.00,,SCT060,0.00,VWS V14.01,2013-02-01 09:55:00,
2013-02-01 05:00:00,28.0,10.4,29.59,WNW,284,3.0,4.0,47,0.00,,SCT060,0.00,VWS V14.01,2013-02-01 10:00:00,
2013-02-01 05:05:00,27.9,10.8,29.59,WSW,240,8.0,8.0,48,0.00,,SCT060,0.00,VWS V14.01,2013-02-01 10:05:00,
2013-02-01 05:10:00,27.8,10.2,29.59,NNW,333,1.0,1.0,47,0.00,,SCT060,0.00,VWS V14.01,2013-02-01 10:10:00,
2013-02-01 05:15:00,27.8,10.2,29.60,SSW,200,2.0,3.0,47,0.00,,SCT060,0.00,VWS V14.01,2013-02-01 10:15:00,
2013-02-01 05:20:00,27.8,10.7,29.60,SW,224,4.0,4.0,48,0.00,,SCT060,0.00,VWS V14.01,2013-02-01 10:20:00,
2013-02-01 05:25:00,27.7,10.6,29.60,SW,231,3.0,3.0,48,0.00,,SCT060,0.00,VWS V14.01,2013-02-01 10:25:00,
2013-02-01 05:30:00,27.7,10.1,29.60,West,271,6.0,6.0,47,0.00,,SCT060,0.00,VWS V14.01,2013-02-01 10:30:00,
2013-02-01 05:35:00,27.6,10.0,29.60,WNW,302,1.0,4.0,47,0.00,,FEW060,0.00,VWS V14.01,2013-02-01 10:35:00,
2013-02-01 05:40:00,27.6,10.0,29.61,West,263,10.0,12.0,47,0.00,,FEW060,0.00,VWS V14.01,2013-02-01 10:40:00,
2013-02-01 05:46:00,27.6,9.5,29.61,North,8,1.0,2.0,46,0.00,,FEW060,0.00,VWS V14.01,2013-02-01 10:46:00,
2013-02-01 05:51:00,27.6,9.1,29.61,WSW,256,2.0,12.0,45,0.00,,FEW060,0.00,VWS V14.01,2013-02-01 10:51:00,
2013-02-01 05:56:00,27.6,9.5,29.61,WNW,294,5.0,6.0,46,0.00,,FEW060,0.00,VWS V14.01,2013-02-01 10:56:00,
2013-02-01 06:01:00,27.6,9.5,29.62,South,188,0.0,1.0,46,0.00,,FEW060,0.00,VWS V14.01,2013-02-01 11:01:00,
2013-02-01 06:06:00,27.5,9.9,29.62,SW,218,1.0,3.0,47,0.00,,FEW060,0.00,VWS V14.01,2013-02-01 11:06:00,
2013-02-01 06:11:00,27.5,9.9,29.62,WSW,248,1.0,1.0,47,0.00,,FEW060,0.00,VWS V14.01,2013-02-01 11:11:00,
2013-02-01 06:16:00,27.4,9.8,29.62,WNW,284,1.0,2.0,47,0.00,,FEW060,0.00,VWS V14.01,2013-02-01 11:16:00,
2013-02-01 06:21:00,27.4,10.3,29.62,WSW,238,2.0,3.0,48,0.00,,FEW060,0.00,VWS V14.01,2013-02-01 11:21:00,
2013-02-01 06:26:00,27.3,10.2,29.63,WNW,287,3.0,6.0,48,0.00,,FEW060,0.00,VWS V14.01,2013-02-01 11:26:00,
2013-02-01 06:32:00,27.2,9.6,29.64,NW,318,2.0,8.0,47,0.00,,FEW050,0.00,VWS V14.01,2013-02-01 11:32:00,
2013-02-01 06:37:00,27.1,11.8,29.63,NW,322,1.0,4.0,52,0.00,,FEW050,0.00,VWS V14.01,2013-02-01 11:37:00,
2013-02-01 06:42:00,26.8,12.0,29.64,West,277,7.0,9.0,53,0.00,,FEW050,0.00,VWS V14.01,2013-02-01 11:42:00,
2013-02-01 06:47:00,26.7,12.7,29.64,WSW,245,4.0,4.0,55,0.00,,FEW050,0.00,VWS V14.01,2013-02-01 11:47:00,
2013-02-01 06:52:00,26.5,13.3,29.64,WSW,252,1.0,2.0,57,0.00,,FEW050,0.00,VWS V14.01,2013-02-01 11:52:00,
2013-02-01 06:57:00,26.3,14.3,29.64,SW,235,3.0,5.0,60,0.00,,FEW050,0.00,VWS V14.01,2013-02-01 11:57:00,
2013-02-01 07:02:00,26.1,14.9,29.64,WNW,284,1.0,3.0,62,0.00,,FEW050,0.00,VWS V14.01,2013-02-01 12:02:00,
2013-02-01 07:07:00,25.8,16.0,29.64,West,280,1.0,2.0,66,0.00,,FEW050,0.00,VWS V14.01,2013-02-01 12:07:00,
2013-02-01 07:12:00,25.6,16.5,29.64,West,266,1.0,3.0,68,0.00,,FEW050,0.00,VWS V14.01,2013-02-01 12:12:00,
2013-02-01 07:17:00,25.4,16.7,29.65,WSW,245,0.0,1.0,69,0.00,,FEW050,0.00,VWS V14.01,2013-02-01 12:17:00,
2013-02-01 07:22:00,25.3,16.6,29.65,WNW,292,0.0,1.0,69,0.00,,FEW050,0.00,VWS V14.01,2013-02-01 12:22:00,
2013-02-01 07:27:00,25.2,16.8,29.66,NNW,328,1.0,3.0,70,0.00,,FEW050,0.00,VWS V14.01,2013-02-01 12:27:00,
2013-02-01 07:32:00,25.2,17.1,29.66,WNW,284,1.0,2.0,71,0.00,,FEW035,0.00,VWS V14.01,2013-02-01 12:32:00,
2013-02-01 07:37:00,25.2,17.1,29.66,NNW,332,0.0,0.0,71,0.00,,FEW035,0.00,VWS V14.01,2013-02-01 12:37:00,
2013-02-01 07:42:00,25.4,17.3,29.67,WSW,248,1.0,3.0,71,0.00,,FEW035,0.00,VWS V14.01,2013-02-01 12:42:00,
2013-02-01 07:47:00,25.5,17.1,29.67,West,269,3.0,4.0,70,0.00,,FEW035,0.00,VWS V14.01,2013-02-01 12:47:00,
2013-02-01 07:52:00,25.6,17.2,29.68,WNW,297,1.0,4.0,70,0.00,,FEW035,0.00,VWS V14.01,2013-02-01 12:52:00,
2013-02-01 07:57:00,25.9,17.5,29.68,West,267,1.0,2.0,70,0.00,,FEW035,0.00,VWS V14.01,2013-02-01 12:57:00,
2013-02-01 08:02:00,26.2,17.1,29.68,SW,224,1.0,4.0,68,0.00,,FEW035,0.00,VWS V14.01,2013-02-01 13:02:00,
2013-02-01 08:08:00,26.5,17.0,29.69,SW,215,1.0,2.0,67,0.00,,FEW035,0.00,VWS V14.01,2013-02-01 13:08:00,
2013-02-01 08:13:00,26.8,17.0,29.69,SW,214,1.0,4.0,66,0.00,,FEW035,0.00,VWS V14.01,2013-02-01 13:13:00,
2013-02-01 08:18:00,27.0,16.5,29.69,West,280,1.0,5.0,64,0.00,,FEW035,0.00,VWS V14.01,2013-02-01 13:18:00,
2013-02-01 08:23:00,27.3,16.4,29.69,West,260,4.0,6.0,63,0.00,,FEW035,0.00,VWS V14.01,2013-02-01 13:23:00,
2013-02-01 08:28:00,27.7,15.6,29.69,SW,224,3.0,7.0,60,0.00,,FEW035,0.00,VWS V14.01,2013-02-01 13:28:00,
2013-02-01 08:33:00,28.0,14.8,29.69,WSW,257,2.0,2.0,57,0.00,,FEW050,0.00,VWS V14.01,2013-02-01 13:33:00,
2013-02-01 08:38:00,28.5,14.4,29.69,West,267,2.0,2.0,55,0.00,,FEW050,0.00,VWS V14.01,2013-02-01 13:38:00,
2013-02-01 08:43:00,28.9,12.6,29.69,WNW,282,3.0,4.0,50,0.00,,FEW050,0.00,VWS V14.01,2013-02-01 13:43:00,
2013-02-01 08:48:00,28.9,12.1,29.69,West,274,3.0,3.0,49,0.00,,FEW050,0.00,VWS V14.01,2013-02-01 13:48:00,
2013-02-01 08:53:00,29.2,12.0,29.70,WNW,296,3.0,4.0,48,0.00,,FEW050,0.00,VWS V14.01,2013-02-01 13:53:00,
2013-02-01 08:58:00,29.3,11.1,29.70,West,273,6.0,9.0,46,0.00,,FEW050,0.00,VWS V14.01,2013-02-01 13:58:00,
2013-02-01 09:03:00,29.3,11.1,29.70,WSW,246,6.0,8.0,46,0.00,,FEW050,0.00,VWS V14.01,2013-02-01 14:03:00,
2013-02-01 09:08:00,29.5,11.8,29.70,NNW,341,4.0,6.0,47,0.00,,FEW050,0.00,VWS V14.01,2013-02-01 14:08:00,
2013-02-01 09:14:00,29.7,11.0,29.70,West,259,9.0,11.0,45,0.00,,FEW050,0.00,VWS V14.01,2013-02-01 14:14:00,
2013-02-01 09:19:00,29.7,11.0,29.71,SW,215,5.0,6.0,45,0.00,,FEW050,0.00,VWS V14.01,2013-02-01 14:19:00,
2013-02-01 09:24:00,29.7,10.5,29.71,WSW,246,5.0,12.0,44,0.00,,FEW050,0.00,VWS V14.01,2013-02-01 14:24:00,
2013-02-01 09:29:00,29.6,10.4,29.71,WSW,252,6.0,9.0,44,0.00,,FEW050,0.00,VWS V14.01,2013-02-01 14:29:00,
2013-02-01 09:34:00,29.7,10.5,29.72,WNW,289,4.0,10.0,44,0.00,,FEW050,0.00,VWS V14.01,2013-02-01 14:34:00,
2013-02-01 09:39:00,30.0,10.2,29.72,NW,309,3.0,8.0,43,0.00,,FEW050,0.00,VWS V14.01,2013-02-01 14:39:00,
2013-02-01 09:44:00,30.3,10.5,29.72,West,274,7.0,7.0,43,0.00,,FEW050,0.00,VWS V14.01,2013-02-01 14:44:00,
2013-02-01 09:49:00,30.5,10.7,29.72,West,262,1.0,4.0,43,0.00,,FEW050,0.00,VWS V14.01,2013-02-01 14:49:00,
2013-02-01 09:54:00,30.8,10.4,29.73,West,264,3.0,7.0,42,0.00,,FEW050,0.00,VWS V14.01,2013-02-01 14:54:00,
2013-02-01 09:59:00,31.0,10.6,29.73,WSW,250,7.0,9.0,42,0.00,,FEW050,0.00,VWS V14.01,2013-02-01 14:59:00,
2013-02-01 10:04:00,31.0,10.1,29.73,WSW,250,4.0,12.0,41,0.00,,FEW050,0.00,VWS V14.01,2013-02-01 15:04:00,
2013-02-01 10:09:00,31.2,9.7,29.73,WSW,243,7.0,13.0,40,0.00,,FEW050,0.00,VWS V14.01,2013-02-01 15:09:00,
2013-02-01 10:14:00,31.3,10.3,29.73,WSW,256,7.0,13.0,41,0.00,,FEW050,0.00,VWS V14.01,2013-02-01 15:14:00,
2013-02-01 10:19:00,31.4,10.4,29.73,NNW,345,4.0,11.0,41,0.00,,FEW050,0.00,VWS V14.01,2013-02-01 15:19:00,
2013-02-01 10:24:00,31.1,9.6,29.73,South,186,2.0,6.0,40,0.00,,FEW050,0.00,VWS V14.01,2013-02-01 15:24:00,
2013-02-01 10:29:00,31.3,10.3,29.73,WNW,284,1.0,8.0,41,0.00,,FEW050,0.00,VWS V14.01,2013-02-01 15:29:00,
2013-02-01 10:34:00,31.0,9.5,29.74,SW,214,1.0,7.0,40,0.00,,FEW050,0.00,VWS V14.01,2013-02-01 15:34:00,
2013-02-01 10:39:00,30.8,9.9,29.73,WNW,297,6.0,8.0,41,0.00,,SCT250,0.00,VWS V14.01,2013-02-01 15:39:00,
2013-02-01 10:44:00,30.5,8.5,29.74,South,188,7.0,13.0,39,0.00,,SCT250,0.00,VWS V14.01,2013-02-01 15:44:00,
2013-02-01 10:49:00,30.3,8.3,29.74,WNW,284,7.0,10.0,39,0.00,,SCT250,0.00,VWS V14.01,2013-02-01 15:49:00,
2013-02-01 10:54:00,30.3,8.9,29.74,WNW,283,8.0,8.0,40,0.00,,SCT250,0.00,VWS V14.01,2013-02-01 15:54:00,
2013-02-01 10:59:00,30.3,8.3,29.73,WSW,240,4.0,4.0,39,0.00,,SCT250,0.00,VWS V14.01,2013-02-01 15:59:00,
2013-02-01 11:04:00,30.2,8.2,29.74,East,101,4.0,4.0,39,0.00,,SCT250,0.00,VWS V14.01,2013-02-01 16:04:00,
2013-02-01 11:09:00,30.2,8.8,29.74,West,269,5.0,13.0,40,0.00,,SCT250,0.00,VWS V14.01,2013-02-01 16:09:00,
2013-02-01 11:14:00,30.6,9.2,29.74,NW,323,3.0,12.0,40,0.00,,SCT250,0.00,VWS V14.01,2013-02-01 16:14:00,
2013-02-01 11:19:00,30.7,9.2,29.74,WNW,297,9.0,11.0,40,0.00,,SCT250,0.00,VWS V14.01,2013-02-01 16:19:00,
2013-02-01 11:24:00,30.7,10.3,29.73,SSW,212,2.0,4.0,42,0.00,,SCT250,0.00,VWS V14.01,2013-02-01 16:24:00,
2013-02-01 11:30:00,30.8,9.3,29.73,West,266,4.0,15.0,40,0.00,,SCT250,0.00,VWS V14.01,2013-02-01 16:30:00,
2013-02-01 11:35:00,31.0,10.1,29.73,West,263,6.0,8.0,41,0.00,,SCT250,0.00,VWS V14.01,2013-02-01 16:35:00,
2013-02-01 11:40:00,31.2,9.7,29.73,WNW,294,5.0,10.0,40,0.00,,BKN250,0.00,VWS V14.01,2013-02-01 16:40:00,
2013-02-01 11:45:00,31.7,10.7,29.73,NW,315,2.0,6.0,41,0.00,,BKN250,0.00,VWS V14.01,2013-02-01 16:45:00,
2013-02-01 11:50:00,31.6,10.6,29.73,West,260,5.0,11.0,41,0.00,,BKN250,0.00,VWS V14.01,2013-02-01 16:50:00,
2013-02-01 11:55:00,31.5,12.1,29.73,WSW,256,8.0,9.0,44,0.00,,BKN250,0.00,VWS V14.01,2013-02-01 16:55:00,
2013-02-01 12:00:00,31.2,11.8,29.72,West,274,6.0,8.0,44,0.00,,BKN250,0.00,VWS V14.01,2013-02-01 17:00:00,
2013-02-01 12:05:00,31.3,11.9,29.72,NW,321,6.0,11.0,44,0.00,,BKN250,0.00,VWS V14.01,2013-02-01 17:05:00,
2013-02-01 12:10:00,31.3,11.9,29.72,WNW,302,4.0,12.0,44,0.00,,BKN250,0.00,VWS V14.01,2013-02-01 17:10:00,
2013-02-01 12:15:00,31.3,11.9,29.72,WNW,299,5.0,9.0,44,0.00,,BKN250,0.00,VWS V14.01,2013-02-01 17:15:00,
2013-02-01 12:20:00,31.2,10.8,29.72,South,183,1.0,17.0,42,0.00,,BKN250,0.00,VWS V14.01,2013-02-01 17:20:00,
2013-02-01 12:25:00,31.1,10.2,29.72,SW,236,7.0,10.0,41,0.00,,BKN250,0.00,VWS V14.01,2013-02-01 17:25:00,
2013-02-01 12:30:00,31.0,9.5,29.71,West,268,3.0,6.0,40,0.00,,BKN250,0.00,VWS V14.01,2013-02-01 17:30:00,
2013-02-01 12:35:00,31.3,8.6,29.72,NNE,25,3.0,9.0,38,0.00,,BKN250,0.00,VWS V14.01,2013-02-01 17:35:00,
2013-02-01 12:40:00,31.6,7.7,29.72,West,281,9.0,14.0,36,0.00,,BKN250,0.00,VWS V14.01,2013-02-01 17:40:00,
2013-02-01 12:45:00,31.7,7.2,29.72,WNW,285,5.0,19.0,35,0.00,,BKN250,0.00,VWS V14.01,2013-02-01 17:45:00,
2013-02-01 12:50:00,31.3,6.8,29.72,West,278,4.0,11.0,35,0.00,,BKN250,0.00,VWS V14.01,2013-02-01 17:50:00,
2013-02-01 12:55:00,31.7,7.8,29.71,West,259,10.0,16.0,36,0.00,,BKN250,0.00,VWS V14.01,2013-02-01 17:55:00,
2013-02-01 13:00:00,31.7,5.9,29.72,West,269,4.0,10.0,33,0.00,,BKN250,0.00,VWS V14.01,2013-02-01 18:00:00,
2013-02-01 13:05:00,31.4,6.9,29.71,WNW,291,15.0,15.0,35,0.00,,BKN250,0.00,VWS V14.01,2013-02-01 18:05:00,
2013-02-01 13:10:00,31.4,8.1,29.71,WNW,299,6.0,7.0,37,0.00,,BKN250,0.00,VWS V14.01,2013-02-01 18:10:00,
2013-02-01 13:15:00,31.8,10.2,29.71,NE,49,4.0,5.0,40,0.00,,BKN250,0.00,VWS V14.01,2013-02-01 18:15:00,
2013-02-01 13:20:00,32.2,10.0,29.70,WNW,297,9.0,9.0,39,0.00,,BKN250,0.00,VWS V14.01,2013-02-01 18:20:00,
2013-02-01 13:25:00,31.9,9.2,29.70,West,260,7.0,10.0,38,0.00,,BKN250,0.00,VWS V14.01,2013-02-01 18:25:00,
2013-02-01 13:30:00,31.5,7.6,29.70,NNW,329,3.0,8.0,36,0.00,,BKN250,0.00,VWS V14.01,2013-02-01 18:30:00,
2013-02-01 13:35:00,31.4,8.1,29.70,WNW,287,3.0,7.0,37,0.00,,SCT060,0.00,VWS V14.01,2013-02-01 18:35:00,
2013-02-01 13:40:00,31.3,8.1,29.70,West,263,0.0,8.0,37,0.00,,SCT060,0.00,VWS V14.01,2013-02-01 18:40:00,
2013-02-01 13:45:00,31.3,8.6,29.70,West,267,3.0,9.0,38,0.00,,SCT060,0.00,VWS V14.01,2013-02-01 18:45:00,
2013-02-01 13:50:00,31.7,9.0,29.70,SW,218,2.0,10.0,38,0.00,,SCT060,0.00,VWS V14.01,2013-02-01 18:50:00,
2013-02-01 13:55:00,31.7,9.0,29.71,WNW,284,2.0,8.0,38,0.00,,SCT060,0.00,VWS V14.01,2013-02-01 18:55:00,
2013-02-01 14:00:00,31.6,8.3,29.71,North,357,2.0,9.0,37,0.00,,SCT060,0.00,VWS V14.01,2013-02-01 19:00:00,
2013-02-01 14:05:00,31.8,9.1,29.72,WNW,288,3.0,7.0,38,0.00,,SCT060,0.00,VWS V14.01,2013-02-01 19:05:00,
2013-02-01 14:10:00,31.9,9.2,29.72,West,275,3.0,9.0,38,0.00,,SCT060,0.00,VWS V14.01,2013-02-01 19:10:00,
2013-02-01 14:15:00,31.6,8.3,29.72,NNW,340,7.0,8.0,37,0.00,,SCT060,0.00,VWS V14.01,2013-02-01 19:15:00,
2013-02-01 14:20:00,31.4,7.6,29.72,SSW,212,3.0,9.0,36,0.00,,SCT060,0.00,VWS V14.01,2013-02-01 19:20:00,
2013-02-01 14:25:00,31.2,7.4,29.73,NNW,336,4.0,8.0,36,0.00,,SCT060,0.00,VWS V14.01,2013-02-01 19:25:00,
2013-02-01 14:30:00,31.4,8.1,29.73,NNW,330,3.0,5.0,37,0.00,,SCT060,0.00,VWS V14.01,2013-02-01 19:30:00,
2013-02-01 14:35:00,31.7,8.4,29.72,West,277,5.0,7.0,37,0.00,,SCT250,0.00,VWS V14.01,2013-02-01 19:35:00,
2013-02-01 14:40:00,31.5,7.6,29.73,WNW,288,2.0,5.0,36,0.00,,SCT250,0.00,VWS V14.01,2013-02-01 19:40:00,
2013-02-01 14:45:00,31.6,8.9,29.73,West,267,2.0,6.0,38,0.00,,SCT250,0.00,VWS V14.01,2013-02-01 19:45:00,
2013-02-01 14:50:00,31.2,8.0,29.73,WSW,254,1.0,6.0,37,0.00,,SCT250,0.00,VWS V14.01,2013-02-01 19:50:00,
2013-02-01 14:55:00,31.2,8.6,29.73,SW,226,0.0,3.0,38,0.00,,SCT250,0.00,VWS V14.01,2013-02-01 19:55:00,
2013-02-01 15:01:00,31.4,8.7,29.74,North,350,2.0,11.0,38,0.00,,SCT250,0.00,VWS V14.01,2013-02-01 20:01:00,
2013-02-01 15:06:00,31.2,8.6,29.74,WSW,238,5.0,7.0,38,0.00,,SCT250,0.00,VWS V14.01,2013-02-01 20:06:00,
2013-02-01 15:11:00,30.9,9.4,29.74,SE,145,1.0,3.0,40,0.00,,SCT250,0.00,VWS V14.01,2013-02-01 20:11:00,
2013-02-01 15:16:00,30.2,8.2,29.74,West,281,4.0,12.0,39,0.00,,SCT250,0.00,VWS V14.01,2013-02-01 20:16:00,
2013-02-01 15:21:00,29.9,8.0,29.75,WSW,256,1.0,3.0,39,0.00,,SCT250,0.00,VWS V14.01,2013-02-01 20:21:00,
2013-02-01 15:26:00,29.8,7.9,29.75,WNW,302,1.0,6.0,39,0.00,,SCT250,0.00,VWS V14.01,2013-02-01 20:26:00,
2013-02-01 15:31:00,29.5,7.0,29.75,West,266,10.0,11.0,38,0.00,,SCT250,0.00,VWS V14.01,2013-02-01 20:31:00,
2013-02-01 15:36:00,29.4,7.5,29.75,NW,325,1.0,4.0,39,0.00,,SCT250,0.00,VWS V14.01,2013-02-01 20:36:00,
2013-02-01 15:41:00,29.4,7.5,29.76,NNW,330,2.0,6.0,39,0.00,,SCT250,0.00,VWS V14.01,2013-02-01 20:41:00,
2013-02-01 15:46:00,29.3,7.4,29.76,SSE,147,2.0,7.0,39,0.00,,SCT250,0.00,VWS V14.01,2013-02-01 20:46:00,
2013-02-01 15:51:00,29.3,8.0,29.76,WSW,238,3.0,5.0,40,0.00,,SCT250,0.00,VWS V14.01,2013-02-01 20:51:00,
2013-02-01 15:56:00,29.3,8.0,29.76,NNE,26,1.0,1.0,40,0.00,,SCT250,0.00,VWS V14.01,2013-02-01 20:56:00,
2013-02-01 16:01:00,29.2,7.9,29.77,WNW,288,4.0,5.0,40,0.00,,SCT250,0.00,VWS V14.01,2013-02-01 21:01:00,
2013-02-01 16:06:00,29.1,8.4,29.77,NW,316,2.0,3.0,41,0.00,,SCT250,0.00,VWS V14.01,2013-02-01 21:06:00,
2013-02-01 16:11:00,29.2,7.9,29.77,West,270,4.0,5.0,40,0.00,,SCT250,0.00,VWS V14.01,2013-02-01 21:11:00,
2013-02-01 16:16:00,29.3,7.4,29.78,NW,317,6.0,10.0,39,0.00,,SCT250,0.00,VWS V14.01,2013-02-01 21:16:00,
2013-02-01 16:21:00,29.2,7.3,29.78,NNW,348,4.0,5.0,39,0.00,,SCT250,0.00,VWS V14.01,2013-02-01 21:21:00,
2013-02-01 16:26:00,29.0,7.2,29.78,SW,216,4.0,4.0,39,0.00,,SCT250,0.00,VWS V14.01,2013-02-01 21:26:00,
2013-02-01 16:31:00,29.0,7.7,29.79,West,259,2.0,3.0,40,0.00,,SCT250,0.00,VWS V14.01,2013-02-01 21:31:00,
2013-02-01 16:36:00,28.8,7.5,29.79,WNW,293,7.0,11.0,40,0.00,,SCT060,0.00,VWS V14.01,2013-02-01 21:36:00,
2013-02-01 16:41:00,28.6,7.9,29.79,West,270,3.0,3.0,41,0.00,,SCT060,0.00,VWS V14.01,2013-02-01 21:41:00,
2013-02-01 16:47:00,28.5,7.8,29.80,West,266,4.0,7.0,41,0.00,,SCT060,0.00,VWS V14.01,2013-02-01 21:47:00,
2013-02-01 16:52:00,28.4,7.7,29.80,NW,308,0.0,3.0,41,0.00,,SCT060,0.00,VWS V14.01,2013-02-01 21:52:00,
2013-02-01 16:57:00,28.3,8.2,29.80,WNW,283,4.0,9.0,42,0.00,,SCT060,0.00,VWS V14.01,2013-02-01 21:57:00,
2013-02-01 17:02:00,28.2,8.1,29.81,WNW,302,4.0,6.0,42,0.00,,SCT060,0.00,VWS V14.01,2013-02-01 22:02:00,
2013-02-01 17:07:00,28.0,7.9,29.81,WNW,300,2.0,7.0,42,0.00,,SCT060,0.00,VWS V14.01,2013-02-01 22:07:00,
2013-02-01 17:12:00,27.8,8.2,29.82,WNW,293,2.0,3.0,43,0.00,,SCT060,0.00,VWS V14.01,2013-02-01 22:12:00,
2013-02-01 17:17:00,27.6,8.0,29.82,West,276,4.0,6.0,43,0.00,,SCT060,0.00,VWS V14.01,2013-02-01 22:17:00,
2013-02-01 17:22:00,27.4,7.3,29.83,WNW,291,5.0,11.0,42,0.00,,SCT060,0.00,VWS V14.01,2013-02-01 22:22:00,
2013-02-01 17:27:00,27.2,7.2,29.83,WNW,300,1.0,9.0,42,0.00,,SCT060,0.00,VWS V14.01,2013-02-01 22:27:00,
2013-02-01 17:32:00,27.0,7.5,29.84,NW,309,4.0,5.0,43,0.00,,SCT060,0.00,VWS V14.01,2013-02-01 22:32:00,
2013-02-01 17:37:00,26.9,7.4,29.84,SW,226,0.0,3.0,43,0.00,,SCT060,0.00,VWS V14.01,2013-02-01 22:37:00,
2013-02-01 17:42:00,26.8,7.3,29.85,WSW,240,9.0,9.0,43,0.00,,SCT060,0.00,VWS V14.01,2013-02-01 22:42:00,
2013-02-01 17:47:00,26.7,7.2,29.85,East,98,1.0,8.0,43,0.00,,SCT060,0.00,VWS V14.01,2013-02-01 22:47:00,
2013-02-01 17:52:00,26.6,7.1,29.86,WNW,294,0.0,5.0,43,0.00,,SCT060,0.00,VWS V14.01,2013-02-01 22:52:00,
2013-02-01 17:57:00,26.5,7.0,29.87,WSW,249,4.0,4.0,43,0.00,,SCT060,0.00,VWS V14.01,2013-02-01 22:57:00,
2013-02-01 18:02:00,26.3,5.8,29.87,West,264,6.0,7.0,41,0.00,,SCT060,0.00,VWS V14.01,2013-02-01 23:02:00,
2013-02-01 18:07:00,26.0,6.1,29.88,NNW,337,4.0,11.0,42,0.00,,SCT060,0.00,VWS V14.01,2013-02-01 23:07:00,
2013-02-01 18:12:00,25.8,5.4,29.88,WSW,253,9.0,16.0,41,0.00,,SCT060,0.00,VWS V14.01,2013-02-01 23:12:00,
2013-02-01 18:17:00,25.6,5.2,29.89,West,259,1.0,11.0,41,0.00,,SCT060,0.00,VWS V14.01,2013-02-01 23:17:00,
2013-02-01 18:22:00,25.4,5.5,29.90,NNW,334,2.0,7.0,42,0.00,,SCT060,0.00,VWS V14.01,2013-02-01 23:22:00,
2013-02-01 18:27:00,25.3,5.9,29.90,West,266,0.0,5.0,43,0.00,,SCT060,0.00,VWS V14.01,2013-02-01 23:27:00,
2013-02-01 18:32:00,25.2,5.9,29.90,West,262,7.0,7.0,43,0.00,,FEW060,0.00,VWS V14.01,2013-02-01 23:32:00,
2013-02-01 18:37:00,25.0,5.7,29.91,West,271,4.0,7.0,43,0.00,,FEW060,0.00,VWS V14.01,2013-02-01 23:37:00,
2013-02-01 18:42:00,24.8,5.5,29.91,WNW,293,3.0,9.0,43,0.00,,FEW060,0.00,VWS V14.01,2013-02-01 23:42:00,
2013-02-01 18:47:00,24.6,5.8,29.91,WSW,257,4.0,4.0,44,0.00,,FEW060,0.00,VWS V14.01,2013-02-01 23:47:00,
2013-02-01 18:52:00,24.4,5.6,29.92,West,268,2.0,4.0,44,0.00,,FEW060,0.00,VWS V14.01,2013-02-01 23:52:00,
2013-02-01 18:57:00,24.3,5.0,29.92,NW,318,4.0,10.0,43,0.00,,FEW060,0.00,VWS V14.01,2013-02-01 23:57:00,
2013-02-01 19:02:00,24.2,5.4,29.93,WSW,250,7.0,7.0,44,0.00,,FEW060,0.00,VWS V14.01,2013-02-02 00:02:00,
2013-02-01 19:07:00,24.0,5.3,29.93,WSW,240,3.0,5.0,44,0.00,,FEW060,0.00,VWS V14.01,2013-02-02 00:07:00,
2013-02-01 19:12:00,24.0,5.3,29.93,WNW,287,4.0,7.0,44,0.00,,FEW060,0.00,VWS V14.01,2013-02-02 00:12:00,
2013-02-01 19:17:00,23.9,5.7,29.93,NE,53,2.0,3.0,45,0.00,,FEW060,0.00,VWS V14.01,2013-02-02 00:17:00,
2013-02-01 19:22:00,23.7,5.5,29.93,North,1,6.0,16.0,45,0.00,,FEW060,0.00,VWS V14.01,2013-02-02 00:22:00,
2013-02-01 19:27:00,23.6,5.4,29.93,ESE,110,7.0,7.0,45,0.00,,FEW060,0.00,VWS V14.01,2013-02-02 00:27:00,
2013-02-01 19:32:00,23.6,5.9,29.94,WSW,249,2.0,4.0,46,0.00,,FEW060,0.00,VWS V14.01,2013-02-02 00:32:00,
2013-02-01 19:37:00,23.5,5.8,29.94,WSW,240,3.0,6.0,46,0.00,,FEW060,0.00,VWS V14.01,2013-02-02 00:37:00,
2013-02-01 19:42:00,23.4,6.2,29.95,West,281,2.0,3.0,47,0.00,,FEW060,0.00,VWS V14.01,2013-02-02 00:42:00,
2013-02-01 19:47:00,23.3,6.1,29.95,WNW,302,2.0,7.0,47,0.00,,FEW060,0.00,VWS V14.01,2013-02-02 00:47:00,
2013-02-01 19:52:00,23.2,6.4,29.95,WSW,253,1.0,7.0,48,0.00,,FEW060,0.00,VWS V14.01,2013-02-02 00:52:00,
2013-02-01 19:57:00,23.1,6.3,29.95,SW,231,2.0,2.0,48,0.00,,FEW060,0.00,VWS V14.01,2013-02-02 00:57:00,
2013-02-01 20:02:00,22.9,6.2,29.95,NW,322,3.0,7.0,48,0.00,,FEW060,0.00,VWS V14.01,2013-02-02 01:02:00,
2013-02-01 20:07:00,22.9,6.6,29.96,West,259,3.0,5.0,49,0.00,,FEW060,0.00,VWS V14.01,2013-02-02 01:07:00,
2013-02-01 20:12:00,22.8,6.5,29.96,West,269,3.0,7.0,49,0.00,,FEW060,0.00,VWS V14.01,2013-02-02 01:12:00,
2013-02-01 20:17:00,22.7,6.9,29.96,ENE,72,2.0,5.0,50,0.00,,FEW060,0.00,VWS V14.01,2013-02-02 01:17:00,
2013-02-01 20:22:00,22.6,6.8,29.96,WNW,284,0.0,4.0,50,0.00,,FEW060,0.00,VWS V14.01,2013-02-02 01:22:00,
2013-02-01 20:27:00,22.6,6.8,29.96,West,263,0.0,2.0,50,0.00,,FEW060,0.00,VWS V14.01,2013-02-02 01:27:00,
2013-02-01 20:32:00,22.5,7.1,29.96,West,281,4.0,4.0,51,0.00,,FEW060,0.00,VWS V14.01,2013-02-02 01:32:00,
2013-02-01 20:37:00,22.4,7.0,29.97,West,266,1.0,2.0,51,0.00,,FEW060,0.00,VWS V14.01,2013-02-02 01:37:00,
2013-02-01 20:42:00,22.3,7.4,29.97,West,264,3.0,4.0,52,0.00,,FEW060,0.00,VWS V14.01,2013-02-02 01:42:00,
2013-02-01 20:47:00,22.2,7.3,29.97,West,274,2.0,4.0,52,0.00,,FEW060,0.00,VWS V14.01,2013-02-02 01:47:00,
2013-02-01 20:52:00,22.1,7.2,29.98,NW,324,4.0,5.0,52,0.00,,FEW060,0.00,VWS V14.01,2013-02-02 01:52:00,
2013-02-01 20:57:00,22.0,7.1,29.98,NNW,337,4.0,8.0,52,0.00,,FEW060,0.00,VWS V14.01,2013-02-02 01:57:00,
2013-02-01 21:02:00,22.0,7.1,29.98,West,260,1.0,3.0,52,0.00,,FEW060,0.00,VWS V14.01,2013-02-02 02:02:00,
2013-02-01 21:07:00,21.9,7.0,29.98,WSW,256,4.0,7.0,52,0.00,,FEW060,0.00,VWS V14.01,2013-02-02 02:07:00,
2013-02-01 21:12:00,21.9,7.0,29.98,West,260,2.0,6.0,52,0.00,,FEW060,0.00,VWS V14.01,2013-02-02 02:12:00,
2013-02-01 21:17:00,21.8,7.3,29.98,WNW,300,3.0,3.0,53,0.00,,FEW060,0.00,VWS V14.01,2013-02-02 02:17:00,
2013-02-01 21:22:00,21.7,7.2,29.99,WNW,287,5.0,6.0,53,0.00,,FEW060,0.00,VWS V14.01,2013-02-02 02:22:00,
2013-02-01 21:27:00,21.6,7.1,29.99,West,266,3.0,6.0,53,0.00,,FEW060,0.00,VWS V14.01,2013-02-02 02:27:00,
2013-02-01 21:32:00,21.5,7.0,29.99,West,262,2.0,4.0,53,0.00,,FEW250,0.00,VWS V14.01,2013-02-02 02:32:00,
2013-02-01 21:37:00,21.5,7.0,29.99,WSW,255,1.0,3.0,53,0.00,,FEW250,0.00,VWS V14.01,2013-02-02 02:37:00,
2013-02-01 21:42:00,21.4,7.3,29.99,West,262,2.0,6.0,54,0.00,,FEW250,0.00,VWS V14.01,2013-02-02 02:42:00,
2013-02-01 21:47:00,21.3,6.8,29.99,WSW,249,2.0,5.0,53,0.00,,FEW250,0.00,VWS V14.01,2013-02-02 02:47:00,
2013-02-01 21:52:00,21.3,6.8,29.99,West,271,4.0,4.0,53,0.00,,FEW250,0.00,VWS V14.01,2013-02-02 02:52:00,
2013-02-01 21:57:00,21.2,7.2,30.00,WSW,256,5.0,5.0,54,0.00,,FEW250,0.00,VWS V14.01,2013-02-02 02:57:00,
2013-02-01 22:02:00,21.2,7.2,30.00,SW,226,0.0,2.0,54,0.00,,FEW250,0.00,VWS V14.01,2013-02-02 03:02:00,
2013-02-01 22:07:00,21.1,7.1,30.00,NNE,23,0.0,1.0,54,0.00,,FEW250,0.00,VWS V14.01,2013-02-02 03:07:00,
2013-02-01 22:12:00,20.9,7.3,30.00,WSW,252,0.0,3.0,55,0.00,,FEW250,0.00,VWS V14.01,2013-02-02 03:12:00,
2013-02-01 22:17:00,20.8,7.2,30.00,WNW,300,1.0,5.0,55,0.00,,FEW250,0.00,VWS V14.01,2013-02-02 03:17:00,
2013-02-01 22:22:00,20.7,7.5,30.00,NW,309,2.0,3.0,56,0.00,,FEW250,0.00,VWS V14.01,2013-02-02 03:22:00,
2013-02-01 22:27:00,20.5,7.3,30.00,WNW,300,1.0,3.0,56,0.00,,FEW250,0.00,VWS V14.01,2013-02-02 03:27:00,
2013-02-01 22:32:00,20.4,6.8,30.01,North,4,1.0,4.0,55,0.00,,FEW250,0.00,VWS V14.01,2013-02-02 03:32:00,
2013-02-01 22:37:00,20.3,6.7,30.01,West,277,1.0,1.0,55,0.00,,FEW250,0.00,VWS V14.01,2013-02-02 03:37:00,
2013-02-01 22:42:00,20.2,7.0,30.01,WNW,300,1.0,2.0,56,0.00,,FEW250,0.00,VWS V14.01,2013-02-02 03:42:00,
2013-02-01 22:47:00,20.1,7.3,30.01,NNW,348,0.0,1.0,57,0.00,,FEW250,0.00,VWS V14.01,2013-02-02 03:47:00,
2013-02-01 22:52:00,20.0,6.8,30.01,WNW,293,0.0,1.0,56,0.00,,FEW250,0.00,VWS V14.01,2013-02-02 03:52:00,
2013-02-01 22:57:00,19.9,6.8,30.02,WNW,293,2.0,3.0,56,0.00,,FEW250,0.00,VWS V14.01,2013-02-02 03:57:00,
2013-02-01 23:02:00,19.8,6.7,30.02,NE,41,0.0,1.0,56,0.00,,FEW250,0.00,VWS V14.01,2013-02-02 04:02:00,
2013-02-01 23:07:00,19.7,6.2,30.03,WSW,255,2.0,3.0,55,0.00,,FEW250,0.00,VWS V14.01,2013-02-02 04:07:00,
2013-02-01 23:12:00,19.6,6.1,30.03,West,273,2.0,6.0,55,0.00,,FEW250,0.00,VWS V14.01,2013-02-02 04:12:00,
2013-02-01 23:17:00,19.6,6.1,30.03,WSW,248,0.0,2.0,55,0.00,,FEW250,0.00,VWS V14.01,2013-02-02 04:17:00,
2013-02-01 23:22:00,19.5,6.4,30.03,West,264,3.0,3.0,56,0.00,,FEW250,0.00,VWS V14.01,2013-02-02 04:22:00,
2013-02-01 23:27:00,19.4,6.3,30.03,NW,306,2.0,8.0,56,0.00,,FEW250,0.00,VWS V14.01,2013-02-02 04:27:00,
2013-02-01 23:32:00,19.3,6.2,30.03,NW,325,1.0,2.0,56,0.00,,BKN050,0.00,VWS V14.01,2013-02-02 04:32:00,
2013-02-01 23:37:00,19.3,6.2,30.04,West,266,3.0,4.0,56,0.00,,BKN050,0.00,VWS V14.01,2013-02-02 04:37:00,
2013-02-01 23:42:00,19.2,6.1,30.04,WNW,283,0.0,0.0,56,0.00,,BKN050,0.00,VWS V14.01,2013-02-02 04:42:00,
2013-02-01 23:47:00,19.2,5.7,30.04,WNW,287,1.0,1.0,55,0.00,,BKN050,0.00,VWS V14.01,2013-02-02 04:47:00,
2013-02-01 23:52:00,19.1,5.6,30.04,WNW,291,2.0,2.0,55,0.00,,BKN050,0.00,VWS V14.01,2013-02-02 04:52:00,
2013-02-01 23:57:00,19.0,5.5,30.04,West,264,0.0,1.0,55,0.00,,BKN050,0.00,VWS V14.01,2013-02-02 04:57:00,